カタリナ彗星

330P/Catalina (2016)

English version
Home page
Updated on March 25, 2017

---------------------------------------------------------------------

・ プロフィール

符号 330P/2015 U1
検出日 2015年10月22日
検出光度 19.7等
検出者 Krisztian Sarneczky (Konkoly Observatory)

・ 写真集

・ 軌道要素

Epoch 2016 Sept. 9.0 TT = JDT 2457640.5
T 2016 Aug. 29.97159 TT                                 MPCW
q   2.9530307            (2000.0)            P               Q
n   0.05850545     Peri.  186.94589     -0.51579170     -0.82110993
a   6.5716108      Node   294.37505     +0.79836346     -0.35719916
e   0.5506382      Incl.   15.56494     +0.31076470     -0.44518226
P  16.85
From 250 observations 1999 Nov. 5-2017 Mar. 5, mean residual 0".7.

・ 光度変化

        m1 = 11.0 + 5 logΔ + 10 log r

---------------------------------------------------------------------

軌道要素はM.P.E.C. 2017-E59に掲載されたものです。
光度グラフはComet for Windowsで作成したものです。

---------------------------------------------------------------------

Copyright(C) Seiichi Yoshida (comet@aerith.net). All rights reserved.